Time,TemperatureF,DewpointF,PressureIn,WindDirection,WindDirectionDegrees,WindSpeedMPH,WindSpeedGustMPH,Humidity,HourlyPrecipIn,Conditions,Clouds,dailyrainin,SoftwareType,DateUTC
2013-01-24 00:10:00,60.5,55.3,30.27,NW,322,2.0,2.0,83,0.00,,,0.00,Wunderground v.1.15,2013-01-24 05:10:00,
2013-01-24 00:20:00,60.3,55.1,30.27,NW,308,1.0,1.0,83,0.00,,,0.00,Wunderground v.1.15,2013-01-24 05:20:00,
2013-01-24 00:30:00,60.3,55.4,30.27,NNW,330,2.0,2.0,84,0.00,,,0.00,Wunderground v.1.15,2013-01-24 05:30:00,
2013-01-24 00:40:00,60.2,55.3,30.27,NW,321,2.0,2.0,84,0.00,,,0.00,Wunderground v.1.15,2013-01-24 05:40:00,
2013-01-24 00:50:00,60.1,55.2,30.26,NNW,333,2.0,2.0,84,0.00,,,0.00,Wunderground v.1.15,2013-01-24 05:50:00,
2013-01-24 01:00:00,60.0,55.2,30.26,NNW,332,1.0,1.0,84,0.00,,,0.00,Wunderground v.1.15,2013-01-24 06:00:00,
2013-01-24 01:10:00,59.8,55.0,30.27,NNW,338,2.0,2.0,84,0.00,,,0.00,Wunderground v.1.15,2013-01-24 06:10:00,
2013-01-24 01:20:00,59.7,54.9,30.27,North,352,2.0,2.0,84,0.00,,,0.00,Wunderground v.1.15,2013-01-24 06:20:00,
2013-01-24 01:30:00,59.5,55.0,30.27,NNW,333,2.0,2.0,85,0.00,,,0.00,Wunderground v.1.15,2013-01-24 06:30:00,
2013-01-24 01:40:00,59.4,54.9,30.27,North,358,1.0,2.0,85,0.00,,,0.00,Wunderground v.1.15,2013-01-24 06:40:00,
2013-01-24 01:50:00,59.5,55.0,30.27,North,357,2.0,2.0,85,0.00,,,0.00,Wunderground v.1.15,2013-01-24 06:50:00,
2013-01-24 02:00:00,59.6,55.1,30.27,North,359,2.0,5.0,85,0.00,,,0.00,Wunderground v.1.15,2013-01-24 07:00:00,
2013-01-24 02:10:00,60.0,55.5,30.26,NW,326,2.0,2.0,85,0.00,,,0.00,Wunderground v.1.15,2013-01-24 07:10:00,
2013-01-24 02:20:00,60.1,55.6,30.26,NNW,346,2.0,3.0,85,0.00,,,0.00,Wunderground v.1.15,2013-01-24 07:20:00,
2013-01-24 02:30:00,60.1,55.2,30.26,NNW,347,3.0,3.0,84,0.00,,,0.00,Wunderground v.1.15,2013-01-24 07:30:00,
2013-01-24 02:40:00,60.1,55.2,30.26,NNE,18,2.0,3.0,84,0.00,,,0.00,Wunderground v.1.15,2013-01-24 07:40:00,
2013-01-24 02:50:00,60.1,55.2,30.25,North,6,3.0,4.0,84,0.00,,,0.00,Wunderground v.1.15,2013-01-24 07:50:00,
2013-01-24 03:00:00,60.2,55.3,30.25,NNW,336,4.0,4.0,84,0.00,,,0.00,Wunderground v.1.15,2013-01-24 08:00:00,
2013-01-24 03:10:00,60.2,55.3,30.26,NNE,18,4.0,6.0,84,0.00,,,0.00,Wunderground v.1.15,2013-01-24 08:10:00,
2013-01-24 03:20:00,60.1,54.9,30.26,North,353,3.0,3.0,83,0.00,,,0.00,Wunderground v.1.15,2013-01-24 08:20:00,
2013-01-24 03:30:00,60.1,54.9,30.25,NNW,346,3.0,3.0,83,0.00,,,0.00,Wunderground v.1.15,2013-01-24 08:30:00,
2013-01-24 03:40:00,59.9,54.7,30.24,NNW,342,3.0,3.0,83,0.00,,,0.00,Wunderground v.1.15,2013-01-24 08:40:00,
2013-01-24 03:50:00,59.7,54.9,30.24,North,11,3.0,3.0,84,0.00,,,0.00,Wunderground v.1.15,2013-01-24 08:50:00,
2013-01-24 04:00:00,59.7,54.5,30.24,NNE,27,3.0,3.0,83,0.00,,,0.00,Wunderground v.1.15,2013-01-24 09:00:00,
2013-01-24 04:10:00,59.6,54.8,30.24,NNW,331,2.0,3.0,84,0.00,,,0.00,Wunderground v.1.15,2013-01-24 09:10:00,
2013-01-24 04:20:00,59.6,54.8,30.24,NNW,347,3.0,4.0,84,0.00,,,0.00,Wunderground v.1.15,2013-01-24 09:20:00,
2013-01-24 04:30:00,59.7,54.5,30.23,NNW,340,3.0,3.0,83,0.00,,,0.00,Wunderground v.1.15,2013-01-24 09:30:00,
2013-01-24 04:40:00,59.5,54.7,30.23,NW,326,2.0,2.0,84,0.00,,,0.00,Wunderground v.1.15,2013-01-24 09:40:00,
2013-01-24 04:50:00,59.3,54.5,30.23,NW,322,2.0,2.0,84,0.00,,,0.00,Wunderground v.1.15,2013-01-24 09:50:00,
2013-01-24 05:00:00,59.3,54.5,30.24,NNW,336,2.0,2.0,84,0.00,,,0.00,Wunderground v.1.15,2013-01-24 10:00:00,
2013-01-24 05:10:00,59.4,54.6,30.24,NW,326,2.0,2.0,84,0.00,,,0.00,Wunderground v.1.15,2013-01-24 10:10:00,
2013-01-24 05:20:00,59.5,54.7,30.25,NW,318,3.0,4.0,84,0.00,,,0.00,Wunderground v.1.15,2013-01-24 10:20:00,
2013-01-24 05:30:00,59.6,54.8,30.25,NW,314,2.0,2.0,84,0.00,,,0.00,Wunderground v.1.15,2013-01-24 10:30:00,
2013-01-24 05:40:00,59.6,54.4,30.25,NNW,328,3.0,3.0,83,0.00,,,0.00,Wunderground v.1.15,2013-01-24 10:40:00,
2013-01-24 05:50:00,59.8,54.6,30.25,North,354,3.0,4.0,83,0.00,,,0.00,Wunderground v.1.15,2013-01-24 10:50:00,
2013-01-24 06:00:00,60.2,54.7,30.26,NNE,27,4.0,4.0,82,0.00,,,0.00,Wunderground v.1.15,2013-01-24 11:00:00,
2013-01-24 06:10:00,60.4,54.9,30.26,NNE,15,3.0,3.0,82,0.00,,,0.00,Wunderground v.1.15,2013-01-24 11:10:00,
2013-01-24 06:20:00,60.5,54.6,30.26,NNW,330,3.0,3.0,81,0.00,,,0.00,Wunderground v.1.15,2013-01-24 11:20:00,
2013-01-24 06:30:00,60.5,54.6,30.26,NW,320,3.0,3.0,81,0.00,,,0.00,Wunderground v.1.15,2013-01-24 11:30:00,
2013-01-24 06:40:00,60.4,54.2,30.26,NW,315,4.0,5.0,80,0.00,,,0.00,Wunderground v.1.15,2013-01-24 11:40:00,
2013-01-24 06:50:00,60.1,53.9,30.26,NNW,344,4.0,4.0,80,0.00,,,0.00,Wunderground v.1.15,2013-01-24 11:50:00,
2013-01-24 07:00:00,60.0,53.8,30.26,North,354,4.0,5.0,80,0.00,,,0.00,Wunderground v.1.15,2013-01-24 12:00:00,
2013-01-24 07:10:00,59.7,53.2,30.27,NNE,15,4.0,5.0,79,0.00,,,0.00,Wunderground v.1.15,2013-01-24 12:10:00,
2013-01-24 07:20:00,59.7,52.5,30.27,NNW,332,5.0,8.0,77,0.00,,,0.00,Wunderground v.1.15,2013-01-24 12:20:00,
2013-01-24 07:30:00,59.8,52.2,30.28,NW,326,6.0,6.0,76,0.00,,,0.00,Wunderground v.1.15,2013-01-24 12:30:00,
2013-01-24 07:40:00,59.9,52.0,30.28,NNW,332,4.0,7.0,75,0.00,,,0.00,Wunderground v.1.15,2013-01-24 12:40:00,
2013-01-24 07:50:00,60.4,51.7,30.29,North,354,5.0,6.0,73,0.00,,,0.00,Wunderground v.1.15,2013-01-24 12:50:00,
2013-01-24 08:00:00,61.1,52.0,30.29,NNW,344,5.0,6.0,72,0.00,,,0.00,Wunderground v.1.15,2013-01-24 13:00:00,
2013-01-24 08:10:00,61.5,51.6,30.29,NNW,334,5.0,6.0,70,0.00,,,0.00,Wunderground v.1.15,2013-01-24 13:10:00,
2013-01-24 08:20:00,62.3,51.2,30.29,NNW,336,5.0,5.0,67,0.00,,,0.00,Wunderground v.1.15,2013-01-24 13:20:00,
2013-01-24 08:30:00,63.1,50.7,30.29,North,6,5.0,7.0,64,0.00,,,0.00,Wunderground v.1.15,2013-01-24 13:30:00,
2013-01-24 08:40:00,63.8,49.6,30.30,NW,323,6.0,6.0,60,0.00,,,0.00,Wunderground v.1.15,2013-01-24 13:40:00,
2013-01-24 08:50:00,64.5,49.8,30.30,NNE,19,4.0,4.0,59,0.00,,,0.00,Wunderground v.1.15,2013-01-24 13:50:00,
2013-01-24 09:00:00,65.0,48.4,30.31,NNW,333,5.0,5.0,55,0.00,,,0.00,Wunderground v.1.15,2013-01-24 14:00:00,
2013-01-24 09:10:00,65.7,48.6,30.31,North,352,4.0,5.0,54,0.00,,,0.00,Wunderground v.1.15,2013-01-24 14:10:00,
2013-01-24 09:20:00,66.3,48.1,30.31,NNE,19,5.0,10.0,52,0.00,,,0.00,Wunderground v.1.15,2013-01-24 14:20:00,
2013-01-24 09:30:00,66.9,48.2,30.31,North,354,5.0,6.0,51,0.00,,,0.00,Wunderground v.1.15,2013-01-24 14:30:00,
2013-01-24 09:40:00,67.4,48.6,30.31,NW,316,5.0,7.0,51,0.00,,,0.00,Wunderground v.1.15,2013-01-24 14:40:00,
2013-01-24 09:50:00,68.0,48.1,30.31,North,354,5.0,6.0,49,0.00,,,0.00,Wunderground v.1.15,2013-01-24 14:50:00,
2013-01-24 10:00:00,68.3,48.4,30.31,NNW,340,5.0,5.0,49,0.00,,,0.00,Wunderground v.1.15,2013-01-24 15:00:00,
2013-01-24 10:10:00,68.9,49.5,30.30,North,356,5.0,5.0,50,0.00,,,0.00,Wunderground v.1.15,2013-01-24 15:10:00,
2013-01-24 10:20:00,69.4,49.4,30.30,East,86,4.0,4.0,49,0.00,,,0.00,Wunderground v.1.15,2013-01-24 15:20:00,
2013-01-24 10:30:00,70.1,50.6,30.30,NNE,33,4.0,4.0,50,0.00,,,0.00,Wunderground v.1.15,2013-01-24 15:30:00,
2013-01-24 10:40:00,70.3,51.3,30.30,NW,323,5.0,10.0,51,0.00,,,0.00,Wunderground v.1.15,2013-01-24 15:40:00,
2013-01-24 10:50:00,70.7,51.7,30.30,North,358,4.0,4.0,51,0.00,,,0.00,Wunderground v.1.15,2013-01-24 15:50:00,
2013-01-24 11:00:00,70.8,51.8,30.30,NNE,25,5.0,6.0,51,0.00,,,0.00,Wunderground v.1.15,2013-01-24 16:00:00,
2013-01-24 11:10:00,71.1,51.5,30.30,NW,314,5.0,5.0,50,0.00,,,0.00,Wunderground v.1.15,2013-01-24 16:10:00,
2013-01-24 11:20:00,71.3,52.2,30.30,NW,316,6.0,6.0,51,0.00,,,0.00,Wunderground v.1.15,2013-01-24 16:20:00,
2013-01-24 11:30:00,71.8,53.2,30.30,NW,326,6.0,6.0,52,0.00,,,0.00,Wunderground v.1.15,2013-01-24 16:30:00,
2013-01-24 11:40:00,71.5,52.9,30.29,West,262,7.0,7.0,52,0.00,,,0.00,Wunderground v.1.15,2013-01-24 16:40:00,
2013-01-24 11:50:00,71.0,52.5,30.29,NNW,338,6.0,6.0,52,0.00,,,0.00,Wunderground v.1.15,2013-01-24 16:50:00,
2013-01-24 12:00:00,71.7,54.2,30.28,NE,53,6.0,8.0,54,0.00,,,0.00,Wunderground v.1.15,2013-01-24 17:00:00,
2013-01-24 12:10:00,72.0,52.9,30.28,NNE,30,7.0,7.0,51,0.00,,,0.00,Wunderground v.1.15,2013-01-24 17:10:00,
2013-01-24 12:20:00,72.5,52.8,30.27,North,4,7.0,8.0,50,0.00,,,0.00,Wunderground v.1.15,2013-01-24 17:20:00,
2013-01-24 12:30:00,73.3,53.0,30.27,NNE,32,5.0,5.0,49,0.00,,,0.00,Wunderground v.1.15,2013-01-24 17:30:00,
2013-01-24 12:40:00,73.2,54.5,30.26,NE,47,6.0,6.0,52,0.00,,,0.00,Wunderground v.1.15,2013-01-24 17:40:00,
2013-01-24 12:50:00,73.1,54.4,30.26,NNE,25,6.0,9.0,52,0.00,,,0.00,Wunderground v.1.15,2013-01-24 17:50:00,
2013-01-24 13:00:00,72.9,55.3,30.25,NE,44,7.0,7.0,54,0.00,,,0.00,Wunderground v.1.15,2013-01-24 18:00:00,
2013-01-24 13:10:00,72.6,54.5,30.25,ENE,61,8.0,8.0,53,0.00,,,0.00,Wunderground v.1.15,2013-01-24 18:10:00,
2013-01-24 13:20:00,73.0,55.4,30.25,East,79,6.0,8.0,54,0.00,,,0.00,Wunderground v.1.15,2013-01-24 18:20:00,
2013-01-24 13:30:00,72.6,55.5,30.24,NE,44,8.0,11.0,55,0.00,,,0.00,Wunderground v.1.15,2013-01-24 18:30:00,
2013-01-24 13:40:00,72.5,55.9,30.24,ENE,67,8.0,10.0,56,0.00,,,0.00,Wunderground v.1.15,2013-01-24 18:40:00,
2013-01-24 13:50:00,72.6,55.5,30.24,NE,48,7.0,8.0,55,0.00,,,0.00,Wunderground v.1.15,2013-01-24 18:50:00,
2013-01-24 14:00:00,72.3,55.7,30.23,ENE,61,8.0,11.0,56,0.00,,,0.00,Wunderground v.1.15,2013-01-24 19:00:00,
2013-01-24 14:10:00,72.3,55.7,30.23,East,92,7.0,10.0,56,0.00,,,0.00,Wunderground v.1.15,2013-01-24 19:10:00,
2013-01-24 14:20:00,72.2,55.1,30.23,NE,51,7.0,8.0,55,0.00,,,0.00,Wunderground v.1.15,2013-01-24 19:20:00,
2013-01-24 14:30:00,71.9,55.8,30.22,ENE,62,7.0,10.0,57,0.00,,,0.00,Wunderground v.1.15,2013-01-24 19:30:00,
2013-01-24 14:40:00,72.3,55.7,30.22,ESE,116,6.0,6.0,56,0.00,,,0.00,Wunderground v.1.15,2013-01-24 19:40:00,
2013-01-24 14:50:00,72.1,56.0,30.22,ESE,116,5.0,5.0,57,0.00,,,0.00,Wunderground v.1.15,2013-01-24 19:50:00,
2013-01-24 15:00:00,71.8,54.8,30.22,NE,39,7.0,7.0,55,0.00,,,0.00,Wunderground v.1.15,2013-01-24 20:00:00,
2013-01-24 15:10:00,71.4,55.4,30.22,ENE,59,7.0,7.0,57,0.00,,,0.00,Wunderground v.1.15,2013-01-24 20:10:00,
2013-01-24 15:20:00,71.8,55.3,30.21,NE,40,6.0,6.0,56,0.00,,,0.00,Wunderground v.1.15,2013-01-24 20:20:00,
2013-01-24 15:30:00,71.9,55.3,30.21,ENE,65,6.0,7.0,56,0.00,,,0.00,Wunderground v.1.15,2013-01-24 20:30:00,
2013-01-24 15:40:00,71.8,55.3,30.22,ENE,68,6.0,6.0,56,0.00,,,0.00,Wunderground v.1.15,2013-01-24 20:40:00,
2013-01-24 15:50:00,71.8,55.7,30.22,NNE,25,6.0,8.0,57,0.00,,,0.00,Wunderground v.1.15,2013-01-24 20:50:00,
2013-01-24 16:00:00,71.5,55.0,30.22,ENE,57,8.0,8.0,56,0.00,,,0.00,Wunderground v.1.15,2013-01-24 21:00:00,
2013-01-24 16:10:00,71.5,55.5,30.22,East,101,6.0,6.0,57,0.00,,,0.00,Wunderground v.1.15,2013-01-24 21:10:00,
2013-01-24 16:20:00,71.3,55.3,30.22,NNE,29,6.0,6.0,57,0.00,,,0.00,Wunderground v.1.15,2013-01-24 21:20:00,
2013-01-24 16:30:00,71.5,55.0,30.23,WNW,300,6.0,6.0,56,0.00,,,0.00,Wunderground v.1.15,2013-01-24 21:30:00,
2013-01-24 16:40:00,71.4,54.4,30.23,NNE,29,6.0,6.0,55,0.00,,,0.00,Wunderground v.1.15,2013-01-24 21:40:00,
2013-01-24 16:50:00,71.2,55.2,30.23,NE,34,6.0,6.0,57,0.00,,,0.00,Wunderground v.1.15,2013-01-24 21:50:00,
2013-01-24 17:00:00,70.9,55.9,30.24,North,1,6.0,6.0,59,0.00,,,0.00,Wunderground v.1.15,2013-01-24 22:00:00,
2013-01-24 17:10:00,70.7,54.7,30.24,ENE,57,7.0,7.0,57,0.00,,,0.00,Wunderground v.1.15,2013-01-24 22:10:00,
2013-01-24 17:20:00,70.5,55.0,30.24,NNE,20,6.0,9.0,58,0.00,,,0.00,Wunderground v.1.15,2013-01-24 22:20:00,
2013-01-24 17:30:00,70.2,54.2,30.24,NE,51,6.0,6.0,57,0.00,,,0.00,Wunderground v.1.15,2013-01-24 22:30:00,
2013-01-24 17:40:00,69.9,53.5,30.25,NE,43,6.0,6.0,56,0.00,,,0.00,Wunderground v.1.15,2013-01-24 22:40:00,
2013-01-24 17:50:00,69.4,52.0,30.25,NNW,336,7.0,7.0,54,0.00,,,0.00,Wunderground v.1.15,2013-01-24 22:50:00,
2013-01-24 18:00:00,68.8,51.5,30.25,NNW,344,5.0,6.0,54,0.00,,,0.00,Wunderground v.1.15,2013-01-24 23:00:00,
2013-01-24 18:10:00,68.3,51.0,30.25,NNE,32,4.0,5.0,54,0.00,,,0.00,Wunderground v.1.15,2013-01-24 23:10:00,
2013-01-24 18:20:00,68.0,51.2,30.25,NNW,339,4.0,4.0,55,0.00,,,0.00,Wunderground v.1.15,2013-01-24 23:20:00,
2013-01-24 18:30:00,67.6,51.8,30.25,NNW,342,4.0,4.0,57,0.00,,,0.00,Wunderground v.1.15,2013-01-24 23:30:00,
2013-01-24 18:40:00,67.2,51.9,30.25,NW,322,3.0,3.0,58,0.00,,,0.00,Wunderground v.1.15,2013-01-24 23:40:00,
2013-01-24 18:50:00,66.8,52.5,30.25,North,6,2.0,3.0,60,0.00,,,0.00,Wunderground v.1.15,2013-01-24 23:50:00,
2013-01-24 19:00:00,66.5,53.1,30.25,NNW,332,3.0,4.0,62,0.00,,,0.00,Wunderground v.1.15,2013-01-25 00:00:00,
2013-01-24 19:10:00,66.3,52.9,30.25,NW,326,2.0,2.0,62,0.00,,,0.00,Wunderground v.1.15,2013-01-25 00:10:00,
2013-01-24 19:20:00,66.0,53.0,30.25,NNW,345,1.0,1.0,63,0.00,,,0.00,Wunderground v.1.15,2013-01-25 00:20:00,
2013-01-24 19:30:00,65.5,53.0,30.26,NW,323,1.0,1.0,64,0.00,,,0.00,Wunderground v.1.15,2013-01-25 00:30:00,
2013-01-24 19:40:00,65.4,53.3,30.26,NW,321,2.0,2.0,65,0.00,,,0.00,Wunderground v.1.15,2013-01-25 00:40:00,
2013-01-24 19:50:00,65.3,53.2,30.26,NW,319,2.0,2.0,65,0.00,,,0.00,Wunderground v.1.15,2013-01-25 00:50:00,
2013-01-24 20:00:00,65.0,53.4,30.26,NNW,340,1.0,1.0,66,0.00,,,0.00,Wunderground v.1.15,2013-01-25 01:00:00,
2013-01-24 20:10:00,64.7,53.5,30.27,NW,320,1.0,2.0,67,0.00,,,0.00,Wunderground v.1.15,2013-01-25 01:10:00,
2013-01-24 20:20:00,64.4,53.6,30.27,NW,323,2.0,3.0,68,0.00,,,0.00,Wunderground v.1.15,2013-01-25 01:20:00,
2013-01-24 20:30:00,64.1,53.7,30.27,NW,322,2.0,2.0,69,0.00,,,0.00,Wunderground v.1.15,2013-01-25 01:30:00,
2013-01-24 20:40:00,63.9,53.9,30.27,NW,326,2.0,4.0,70,0.00,,,0.00,Wunderground v.1.15,2013-01-25 01:40:00,
2013-01-24 20:50:00,63.9,53.9,30.27,North,356,3.0,3.0,70,0.00,,,0.00,Wunderground v.1.15,2013-01-25 01:50:00,
2013-01-24 21:00:00,63.7,53.7,30.28,NE,39,3.0,3.0,70,0.00,,,0.00,Wunderground v.1.15,2013-01-25 02:00:00,
2013-01-24 21:10:00,63.5,53.9,30.28,NNW,332,1.0,2.0,71,0.00,,,0.00,Wunderground v.1.15,2013-01-25 02:10:00,
2013-01-24 21:20:00,63.2,54.0,30.28,NNE,29,1.0,1.0,72,0.00,,,0.00,Wunderground v.1.15,2013-01-25 02:20:00,
2013-01-24 21:30:00,63.0,53.8,30.28,NNW,345,2.0,3.0,72,0.00,,,0.00,Wunderground v.1.15,2013-01-25 02:30:00,
2013-01-24 21:40:00,62.8,54.0,30.28,North,1,2.0,2.0,73,0.00,,,0.00,Wunderground v.1.15,2013-01-25 02:40:00,
2013-01-24 21:50:00,62.8,54.0,30.28,North,360,2.0,2.0,73,0.00,,,0.00,Wunderground v.1.15,2013-01-25 02:50:00,
2013-01-24 22:00:00,62.7,53.9,30.28,North,356,2.0,2.0,73,0.00,,,0.00,Wunderground v.1.15,2013-01-25 03:00:00,
2013-01-24 22:10:00,62.7,53.9,30.29,NW,326,1.0,2.0,73,0.00,,,0.00,Wunderground v.1.15,2013-01-25 03:10:00,
2013-01-24 22:20:00,62.4,54.0,30.29,NNW,338,2.0,2.0,74,0.00,,,0.00,Wunderground v.1.15,2013-01-25 03:20:00,
2013-01-24 22:30:00,62.2,53.8,30.28,NNW,344,2.0,2.0,74,0.00,,,0.00,Wunderground v.1.15,2013-01-25 03:30:00,
2013-01-24 22:40:00,62.0,54.0,30.28,NNE,20,2.0,2.0,75,0.00,,,0.00,Wunderground v.1.15,2013-01-25 03:40:00,
2013-01-24 22:50:00,61.9,53.9,30.28,NNE,15,2.0,2.0,75,0.00,,,0.00,Wunderground v.1.15,2013-01-25 03:50:00,
2013-01-24 23:00:00,61.9,53.9,30.28,NW,320,3.0,3.0,75,0.00,,,0.00,Wunderground v.1.15,2013-01-25 04:00:00,
2013-01-24 23:10:00,61.7,53.7,30.28,NNW,329,2.0,2.0,75,0.00,,,0.00,Wunderground v.1.15,2013-01-25 04:10:00,
2013-01-24 23:20:00,61.7,53.7,30.28,North,356,2.0,2.0,75,0.00,,,0.00,Wunderground v.1.15,2013-01-25 04:20:00,
2013-01-24 23:30:00,61.6,53.6,30.27,NW,320,2.0,2.0,75,0.00,,,0.00,Wunderground v.1.15,2013-01-25 04:30:00,
2013-01-24 23:40:00,61.6,53.6,30.27,NNW,332,2.0,2.0,75,0.00,,,0.00,Wunderground v.1.15,2013-01-25 04:40:00,
2013-01-24 23:50:00,61.4,53.8,30.27,North,1,2.0,2.0,76,0.00,,,0.00,Wunderground v.1.15,2013-01-25 04:50:00,